Tracking 29933 objects as of 3-Dec-2024
HD Live streaming from Space Station
objects crossing your sky now

MSG 4 DEB (BAFFLE COVER)

Track MSG 4 DEB (BAFFLE COVER) now!


NORAD ID: 40990
Int'l Code: 2015-034F
Perigee: 34,711.3 km
Apogee: 35,566.4 km
Inclination: 5.6 °
Period: 1,402.8 minutes
Semi major axis: 41509 km
RCS: Unknown
Launch date: July 15, 2015
Source: European Organisation for the Exploitation of Meteorological Satellites (EUME)
Launch site: FRENCH GUIANA (FRGUI)

Note: This is SATELLITE DEBRIS
Your satellite tracking list
Your tracking list is empty




NASA's NSSDC Master Catalog

Two Line Element Set (TLE):
1 40990U 15034F   24336.65629469 -.00000023  00000-0  00000-0 0  9996
2 40990   5.6033  88.2742 0103004 173.7623 186.1310  1.02654100 35129
Source of the keplerian elements: AFSPC